Time,TemperatureF,DewpointF,PressureIn,WindDirection,WindDirectionDegrees,WindSpeedMPH,WindSpeedGustMPH,Humidity,HourlyPrecipIn,Conditions,Clouds,dailyrainin,SoftwareType,DateUTC
2013-01-31 00:00:00,17.9,13.1,29.69,NW,319,20.0,30.0,81,0.00,,---,0.00,VWS V14.00,2013-01-31 06:00:00,
2013-01-31 00:03:00,17.5,12.9,29.71,NW,319,19.0,25.0,82,0.00,,---,0.00,VWS V14.00,2013-01-31 06:03:00,
2013-01-31 00:08:00,17.5,12.7,29.71,NW,319,15.0,25.0,81,0.00,,---,0.00,VWS V14.00,2013-01-31 06:08:00,
2013-01-31 00:13:00,17.4,12.6,29.72,NW,319,14.0,20.0,81,0.00,,---,0.00,VWS V14.00,2013-01-31 06:13:00,
2013-01-31 00:18:00,17.2,12.7,29.72,NW,319,23.0,26.0,82,0.00,,---,0.00,VWS V14.00,2013-01-31 06:18:00,
2013-01-31 00:23:00,17.0,12.5,29.72,NW,319,13.0,26.0,82,0.00,,---,0.00,VWS V14.00,2013-01-31 06:23:00,
2013-01-31 00:28:00,17.0,12.5,29.73,NW,319,13.0,26.0,82,0.00,,---,0.00,VWS V14.00,2013-01-31 06:28:00,
2013-01-31 00:30:00,17.7,12.9,29.71,NW,319,18.0,26.0,81,0.00,,---,0.00,VWS V14.00,2013-01-31 06:30:00,
2013-01-31 00:33:00,16.9,12.4,29.73,NW,319,12.0,26.0,82,0.00,,---,0.00,VWS V14.00,2013-01-31 06:33:00,
2013-01-31 00:38:00,16.9,12.4,29.73,NW,319,18.0,26.0,82,0.00,,---,0.00,VWS V14.00,2013-01-31 06:38:00,
2013-01-31 00:43:00,17.0,12.7,29.73,NW,319,19.0,20.0,83,0.00,,---,0.00,VWS V14.00,2013-01-31 06:43:00,
2013-01-31 00:48:00,17.0,12.7,29.73,NW,319,21.0,22.0,83,0.00,,---,0.00,VWS V14.00,2013-01-31 06:48:00,
2013-01-31 00:53:00,17.1,12.8,29.73,NW,319,22.0,27.0,83,0.00,,---,0.00,VWS V14.00,2013-01-31 06:53:00,
2013-01-31 00:58:00,17.1,12.6,29.74,NW,319,20.0,27.0,82,0.00,,---,0.00,VWS V14.00,2013-01-31 06:58:00,
2013-01-31 01:00:00,17.4,12.6,29.72,NW,319,22.0,25.0,81,0.00,,---,0.00,VWS V14.00,2013-01-31 07:00:00,
2013-01-31 01:03:00,17.1,12.6,29.74,NW,319,10.0,27.0,82,0.00,,---,0.00,VWS V14.00,2013-01-31 07:03:00,
2013-01-31 01:08:00,17.1,12.6,29.74,NW,319,9.0,27.0,82,0.00,,---,0.00,VWS V14.00,2013-01-31 07:08:00,
2013-01-31 01:13:00,17.1,12.6,29.73,NW,319,12.0,19.0,82,0.00,,---,0.00,VWS V14.00,2013-01-31 07:13:00,
2013-01-31 01:18:00,17.2,12.7,29.73,NW,319,11.0,19.0,82,0.00,,---,0.00,VWS V14.00,2013-01-31 07:18:00,
2013-01-31 01:23:00,17.2,12.9,29.73,NW,319,9.0,19.0,83,0.00,,---,0.00,VWS V14.00,2013-01-31 07:23:00,
2013-01-31 01:28:00,17.3,13.0,29.74,NW,319,9.0,19.0,83,0.00,,---,0.00,VWS V14.00,2013-01-31 07:28:00,
2013-01-31 01:30:00,16.9,12.6,29.73,NW,319,20.0,26.0,83,0.00,,---,0.00,VWS V14.00,2013-01-31 07:30:00,
2013-01-31 01:33:00,17.5,12.9,29.74,NW,319,16.0,23.0,82,0.00,,---,0.00,VWS V14.00,2013-01-31 07:33:00,
2013-01-31 01:38:00,17.7,13.1,29.74,NW,319,16.0,23.0,82,0.00,,---,0.00,VWS V14.00,2013-01-31 07:38:00,
2013-01-31 01:43:00,17.8,13.2,29.75,NW,319,15.0,18.0,82,0.00,,---,0.00,VWS V14.00,2013-01-31 07:43:00,
2013-01-31 01:48:00,18.0,13.7,29.75,NW,319,11.0,21.0,83,0.00,,---,0.00,VWS V14.00,2013-01-31 07:48:00,
2013-01-31 01:53:00,18.0,13.7,29.75,NW,319,12.0,21.0,83,0.00,,---,0.00,VWS V14.00,2013-01-31 07:53:00,
2013-01-31 01:58:00,18.1,13.8,29.75,NW,319,12.0,21.0,83,0.00,,---,0.00,VWS V14.00,2013-01-31 07:58:00,
2013-01-31 02:00:00,17.1,12.6,29.73,NW,319,15.0,27.0,82,0.00,,---,0.00,VWS V14.00,2013-01-31 08:00:00,
2013-01-31 02:03:00,18.4,14.1,29.75,NW,319,9.0,21.0,83,0.00,,---,0.00,VWS V14.00,2013-01-31 08:03:00,
2013-01-31 02:08:00,18.5,14.2,29.75,NW,319,10.0,21.0,83,0.00,,---,0.00,VWS V14.00,2013-01-31 08:08:00,
2013-01-31 02:13:00,18.6,14.3,29.75,NW,319,10.0,14.0,83,0.00,,---,0.00,VWS V14.00,2013-01-31 08:13:00,
2013-01-31 02:18:00,18.6,14.3,29.75,NW,319,13.0,16.0,83,0.00,,---,0.00,VWS V14.00,2013-01-31 08:18:00,
2013-01-31 02:23:00,18.8,14.5,29.75,NW,319,14.0,16.0,83,0.00,,---,0.00,VWS V14.00,2013-01-31 08:23:00,
2013-01-31 02:28:00,18.9,14.9,29.76,NW,319,10.0,16.0,84,0.00,,---,0.00,VWS V14.00,2013-01-31 08:28:00,
2013-01-31 02:30:00,17.8,13.2,29.75,NW,319,13.0,23.0,82,0.00,,---,0.00,VWS V14.00,2013-01-31 08:30:00,
2013-01-31 02:33:00,19.0,15.0,29.76,NW,319,6.0,16.0,84,0.00,,---,0.00,VWS V14.00,2013-01-31 08:33:00,
2013-01-31 02:38:00,19.2,15.2,29.76,NW,319,11.0,16.0,84,0.00,,---,0.00,VWS V14.00,2013-01-31 08:38:00,
2013-01-31 02:43:00,19.4,15.4,29.76,NW,319,12.0,13.0,84,0.00,,---,0.00,VWS V14.00,2013-01-31 08:43:00,
2013-01-31 02:48:00,19.5,15.5,29.76,NW,319,14.0,16.0,84,0.00,,---,0.00,VWS V14.00,2013-01-31 08:48:00,
2013-01-31 02:53:00,19.8,15.8,29.76,NW,319,15.0,18.0,84,0.00,,---,0.00,VWS V14.00,2013-01-31 08:53:00,
2013-01-31 02:58:00,20.1,16.0,29.76,NW,319,18.0,18.0,84,0.00,,---,0.00,VWS V14.00,2013-01-31 08:58:00,
2013-01-31 03:00:00,18.5,14.2,29.75,NW,319,14.0,21.0,83,0.00,,---,0.00,VWS V14.00,2013-01-31 09:00:00,
2013-01-31 03:03:00,20.2,16.1,29.76,NW,319,8.0,19.0,84,0.00,,---,0.00,VWS V14.00,2013-01-31 09:03:00,
2013-01-31 03:08:00,20.4,16.4,29.76,NW,319,12.0,19.0,84,0.00,,---,0.00,VWS V14.00,2013-01-31 09:08:00,
2013-01-31 03:13:00,20.5,16.4,29.76,NW,319,16.0,16.0,84,0.00,,---,0.00,VWS V14.00,2013-01-31 09:13:00,
2013-01-31 03:18:00,20.5,16.7,29.76,NW,319,19.0,21.0,85,0.00,,---,0.00,VWS V14.00,2013-01-31 09:18:00,
2013-01-31 03:23:00,20.6,16.8,29.76,NW,319,15.0,23.0,85,0.00,,---,0.00,VWS V14.00,2013-01-31 09:23:00,
2013-01-31 03:28:00,20.6,16.8,29.75,NW,319,10.0,23.0,85,0.00,,---,0.00,VWS V14.00,2013-01-31 09:28:00,
2013-01-31 03:30:00,19.4,15.4,29.76,NW,319,12.0,16.0,84,0.00,,---,0.00,VWS V14.00,2013-01-31 09:30:00,
2013-01-31 03:33:00,20.7,16.9,29.75,NW,319,12.0,23.0,85,0.00,,---,0.00,VWS V14.00,2013-01-31 09:33:00,
2013-01-31 03:38:00,20.8,17.3,29.75,NW,319,13.0,23.0,86,0.00,,---,0.00,VWS V14.00,2013-01-31 09:38:00,
2013-01-31 03:43:00,20.8,17.3,29.76,NW,319,13.0,14.0,86,0.00,,---,0.00,VWS V14.00,2013-01-31 09:43:00,
2013-01-31 03:48:00,20.7,17.5,29.76,NW,319,10.0,18.0,87,0.00,,---,0.00,VWS V14.00,2013-01-31 09:48:00,
2013-01-31 03:53:00,20.7,17.7,29.76,NW,319,12.0,18.0,88,0.00,,---,0.00,VWS V14.00,2013-01-31 09:53:00,
2013-01-31 03:58:00,20.6,17.9,29.76,NW,319,9.0,18.0,89,0.00,,---,0.00,VWS V14.00,2013-01-31 09:58:00,
2013-01-31 04:00:00,20.5,16.4,29.76,NW,319,10.0,19.0,84,0.00,,---,0.00,VWS V14.00,2013-01-31 10:00:00,
2013-01-31 04:03:00,20.5,18.0,29.76,NW,319,11.0,18.0,90,0.00,,---,0.00,VWS V14.00,2013-01-31 10:03:00,
2013-01-31 04:08:00,20.5,18.0,29.76,NW,319,6.0,18.0,90,0.00,,---,0.00,VWS V14.00,2013-01-31 10:08:00,
2013-01-31 04:13:00,20.4,18.2,29.76,NW,319,6.0,9.0,91,0.00,,---,0.00,VWS V14.00,2013-01-31 10:13:00,
2013-01-31 04:18:00,20.3,18.1,29.76,NW,319,6.0,13.0,91,0.00,,---,0.00,VWS V14.00,2013-01-31 10:18:00,
2013-01-31 04:23:00,20.2,18.0,29.76,NW,319,9.0,13.0,91,0.00,,---,0.00,VWS V14.00,2013-01-31 10:23:00,
2013-01-31 04:28:00,20.1,18.1,29.76,NW,319,11.0,15.0,92,0.00,,---,0.00,VWS V14.00,2013-01-31 10:28:00,
2013-01-31 04:30:00,20.8,17.3,29.76,NW,319,11.0,23.0,86,0.00,,---,0.00,VWS V14.00,2013-01-31 10:30:00,
2013-01-31 04:33:00,20.0,18.0,29.76,NW,319,12.0,18.0,92,0.00,,---,0.00,VWS V14.00,2013-01-31 10:33:00,
2013-01-31 04:38:00,20.0,18.0,29.76,NW,319,11.0,18.0,92,0.00,,---,0.00,VWS V14.00,2013-01-31 10:38:00,
2013-01-31 04:43:00,20.0,18.0,29.76,NW,319,14.0,19.0,92,0.00,,---,0.00,VWS V14.00,2013-01-31 10:43:00,
2013-01-31 04:48:00,20.0,18.0,29.76,NW,319,12.0,22.0,92,0.00,,---,0.00,VWS V14.00,2013-01-31 10:48:00,
2013-01-31 04:53:00,20.0,18.0,29.76,NW,319,11.0,22.0,92,0.00,,---,0.00,VWS V14.00,2013-01-31 10:53:00,
2013-01-31 04:58:00,20.0,18.0,29.76,NW,319,14.0,22.0,92,0.00,,---,0.00,VWS V14.00,2013-01-31 10:58:00,
2013-01-31 05:00:00,20.4,18.2,29.76,NW,319,7.0,18.0,91,0.00,,---,0.00,VWS V14.00,2013-01-31 11:00:00,
2013-01-31 05:03:00,19.5,17.3,29.76,NW,319,13.0,22.0,91,0.00,,---,0.00,VWS V14.00,2013-01-31 11:03:00,
2013-01-31 05:08:00,19.2,17.3,29.76,NW,319,8.0,22.0,92,0.00,,---,0.00,VWS V14.00,2013-01-31 11:08:00,
2013-01-31 05:13:00,19.2,17.3,29.76,NW,319,12.0,12.0,92,0.00,,---,0.00,VWS V14.00,2013-01-31 11:13:00,
2013-01-31 05:18:00,19.1,17.2,29.76,NW,319,18.0,19.0,92,0.00,,---,0.00,VWS V14.00,2013-01-31 11:18:00,
2013-01-31 05:23:00,19.0,16.8,29.76,NW,319,14.0,19.0,91,0.00,,---,0.00,VWS V14.00,2013-01-31 11:23:00,
2013-01-31 05:28:00,18.7,16.5,29.77,NW,319,14.0,19.0,91,0.00,,---,0.00,VWS V14.00,2013-01-31 11:28:00,
2013-01-31 05:30:00,20.0,18.0,29.76,NW,319,12.0,18.0,92,0.00,,---,0.00,VWS V14.00,2013-01-31 11:30:00,
2013-01-31 05:33:00,18.6,16.2,29.77,NW,319,13.0,20.0,90,0.00,,---,0.00,VWS V14.00,2013-01-31 11:33:00,
2013-01-31 05:38:00,18.5,16.1,29.77,NW,319,10.0,20.0,90,0.00,,---,0.00,VWS V14.00,2013-01-31 11:38:00,
2013-01-31 05:43:00,18.4,16.0,29.77,NW,319,6.0,9.0,90,0.00,,---,0.00,VWS V14.00,2013-01-31 11:43:00,
2013-01-31 05:48:00,18.2,15.8,29.77,NW,319,8.0,18.0,90,0.00,,---,0.00,VWS V14.00,2013-01-31 11:48:00,
2013-01-31 05:53:00,18.0,15.6,29.77,NW,319,14.0,18.0,90,0.00,,---,0.00,VWS V14.00,2013-01-31 11:53:00,
2013-01-31 05:58:00,17.7,15.0,29.78,NW,319,12.0,20.0,89,0.00,,---,0.00,VWS V14.00,2013-01-31 11:58:00,
2013-01-31 06:00:00,19.2,17.3,29.76,NW,319,10.0,22.0,92,0.00,,---,0.00,VWS V14.00,2013-01-31 12:00:00,
2013-01-31 06:03:00,17.4,14.7,29.78,NW,319,12.0,20.0,89,0.00,,---,0.00,VWS V14.00,2013-01-31 12:03:00,
2013-01-31 06:08:00,17.1,14.4,29.78,NW,319,12.0,21.0,89,0.00,,---,0.00,VWS V14.00,2013-01-31 12:08:00,
2013-01-31 06:13:00,16.6,13.9,29.80,NW,319,19.0,19.0,89,0.00,,---,0.00,VWS V14.00,2013-01-31 12:13:00,
2013-01-31 06:18:00,16.3,13.4,29.80,NW,319,11.0,21.0,88,0.00,,---,0.00,VWS V14.00,2013-01-31 12:18:00,
2013-01-31 06:23:00,16.1,13.2,29.80,NW,319,6.0,21.0,88,0.00,,---,0.00,VWS V14.00,2013-01-31 12:23:00,
2013-01-31 06:28:00,15.8,12.9,29.80,NW,319,22.0,23.0,88,0.00,,---,0.00,VWS V14.00,2013-01-31 12:28:00,
2013-01-31 06:30:00,18.4,16.0,29.77,NW,319,9.0,20.0,90,0.00,,---,0.00,VWS V14.00,2013-01-31 12:30:00,
2013-01-31 06:33:00,15.5,12.1,29.80,NW,319,21.0,23.0,86,0.00,,---,0.00,VWS V14.00,2013-01-31 12:33:00,
2013-01-31 06:38:00,15.2,11.8,29.80,NW,319,13.0,23.0,86,0.00,,---,0.00,VWS V14.00,2013-01-31 12:38:00,
2013-01-31 06:43:00,15.0,11.3,29.82,NW,319,11.0,16.0,85,0.00,,---,0.00,VWS V14.00,2013-01-31 12:43:00,
2013-01-31 06:48:00,14.9,11.2,29.82,NW,319,13.0,18.0,85,0.00,,---,0.00,VWS V14.00,2013-01-31 12:48:00,
2013-01-31 06:53:00,14.8,10.9,29.82,NW,319,13.0,18.0,84,0.00,,---,0.00,VWS V14.00,2013-01-31 12:53:00,
2013-01-31 06:58:00,14.6,10.7,29.83,NW,319,11.0,18.0,84,0.00,,---,0.00,VWS V14.00,2013-01-31 12:58:00,
2013-01-31 07:00:00,16.6,13.9,29.80,NW,319,13.0,21.0,89,0.00,,---,0.00,VWS V14.00,2013-01-31 13:00:00,
2013-01-31 07:03:00,14.5,10.6,29.83,NW,319,12.0,19.0,84,0.00,,---,0.00,VWS V14.00,2013-01-31 13:03:00,
2013-01-31 07:08:00,14.4,10.5,29.83,NW,319,9.0,19.0,84,0.00,,---,0.00,VWS V14.00,2013-01-31 13:08:00,
2013-01-31 07:13:00,14.2,10.0,29.84,NW,319,14.0,16.0,83,0.00,,---,0.00,VWS V14.00,2013-01-31 13:13:00,
2013-01-31 07:18:00,14.1,9.6,29.84,NW,319,6.0,19.0,82,0.00,,---,0.00,VWS V14.00,2013-01-31 13:18:00,
2013-01-31 07:23:00,13.9,9.2,29.84,NW,319,16.0,23.0,81,0.00,,---,0.00,VWS V14.00,2013-01-31 13:23:00,
2013-01-31 07:28:00,13.9,8.9,29.84,NW,319,20.0,23.0,80,0.00,,---,0.00,VWS V14.00,2013-01-31 13:28:00,
2013-01-31 07:30:00,15.1,11.4,29.82,NW,319,14.0,24.0,85,0.00,,---,0.00,VWS V14.00,2013-01-31 13:30:00,
2013-01-31 07:33:00,13.8,8.5,29.84,NW,319,15.0,23.0,79,0.00,,---,0.00,VWS V14.00,2013-01-31 13:33:00,
2013-01-31 07:38:00,13.7,8.4,29.84,NW,319,12.0,23.0,79,0.00,,---,0.00,VWS V14.00,2013-01-31 13:38:00,
2013-01-31 07:43:00,13.6,8.6,29.84,NW,319,7.0,11.0,80,0.00,,---,0.00,VWS V14.00,2013-01-31 13:43:00,
2013-01-31 07:48:00,13.6,8.6,29.84,NW,319,10.0,15.0,80,0.00,,---,0.00,VWS V14.00,2013-01-31 13:48:00,
2013-01-31 07:53:00,13.7,8.7,29.84,NW,319,12.0,15.0,80,0.00,,---,0.00,VWS V14.00,2013-01-31 13:53:00,
2013-01-31 07:58:00,13.7,8.7,29.85,NW,319,11.0,15.0,80,0.00,,---,0.00,VWS V14.00,2013-01-31 13:58:00,
2013-01-31 08:00:00,14.3,10.1,29.84,NW,319,10.0,19.0,83,0.00,,---,0.00,VWS V14.00,2013-01-31 14:00:00,
2013-01-31 08:03:00,13.8,8.8,29.85,NW,319,7.0,18.0,80,0.00,,---,0.00,VWS V14.00,2013-01-31 14:03:00,
2013-01-31 08:08:00,13.9,9.2,29.85,NW,319,12.0,18.0,81,0.00,,---,0.00,VWS V14.00,2013-01-31 14:08:00,
2013-01-31 08:13:00,13.9,9.2,29.86,NW,319,11.0,13.0,81,0.00,,---,0.00,VWS V14.00,2013-01-31 14:13:00,
2013-01-31 08:18:00,14.0,9.3,29.86,NW,319,9.0,16.0,81,0.00,,---,0.00,VWS V14.00,2013-01-31 14:18:00,
2013-01-31 08:23:00,14.0,9.3,29.86,NW,319,13.0,18.0,81,0.00,,---,0.00,VWS V14.00,2013-01-31 14:23:00,
2013-01-31 08:28:00,14.1,9.1,29.87,NW,319,11.0,21.0,80,0.00,,---,0.00,VWS V14.00,2013-01-31 14:28:00,
2013-01-31 08:30:00,13.6,8.6,29.84,NW,319,7.0,23.0,80,0.00,,---,0.00,VWS V14.00,2013-01-31 14:30:00,
2013-01-31 08:33:00,14.1,9.1,29.87,NW,319,8.0,21.0,80,0.00,,---,0.00,VWS V14.00,2013-01-31 14:33:00,
2013-01-31 08:38:00,14.2,9.4,29.87,NW,319,9.0,21.0,81,0.00,,---,0.00,VWS V14.00,2013-01-31 14:38:00,
2013-01-31 08:43:00,14.3,9.6,29.89,NW,319,13.0,18.0,81,0.00,,---,0.00,VWS V14.00,2013-01-31 14:43:00,
2013-01-31 08:48:00,14.2,9.4,29.89,NW,319,8.0,20.0,81,0.00,,---,0.00,VWS V14.00,2013-01-31 14:48:00,
2013-01-31 08:53:00,14.3,9.6,29.89,NW,319,18.0,20.0,81,0.00,,---,0.00,VWS V14.00,2013-01-31 14:53:00,
2013-01-31 08:58:00,14.4,9.6,29.90,NW,319,8.0,20.0,81,0.00,,---,0.00,VWS V14.00,2013-01-31 14:58:00,
2013-01-31 09:00:00,13.9,9.2,29.86,NW,319,12.0,18.0,81,0.00,,---,0.00,VWS V14.00,2013-01-31 15:00:00,
2013-01-31 09:03:00,14.5,9.7,29.90,NW,319,12.0,13.0,81,0.00,,---,0.00,VWS V14.00,2013-01-31 15:03:00,
2013-01-31 09:08:00,14.7,10.2,29.90,NW,319,6.0,13.0,82,0.00,,---,0.00,VWS V14.00,2013-01-31 15:08:00,
2013-01-31 09:13:00,14.8,10.3,29.91,NW,319,11.0,12.0,82,0.00,,---,0.00,VWS V14.00,2013-01-31 15:13:00,
2013-01-31 09:18:00,15.0,10.5,29.91,NW,319,13.0,18.0,82,0.00,,---,0.00,VWS V14.00,2013-01-31 15:18:00,
2013-01-31 09:23:00,15.3,10.8,29.91,NW,319,10.0,18.0,82,0.00,,---,0.00,VWS V14.00,2013-01-31 15:23:00,
2013-01-31 09:28:00,15.3,10.8,29.92,NW,319,12.0,18.0,82,0.00,,---,0.00,VWS V14.00,2013-01-31 15:28:00,
2013-01-31 09:30:00,14.3,9.6,29.89,NW,319,18.0,21.0,81,0.00,,---,0.00,VWS V14.00,2013-01-31 15:30:00,
2013-01-31 09:33:00,15.4,10.4,29.92,NW,319,13.0,21.0,80,0.00,,---,0.00,VWS V14.00,2013-01-31 15:33:00,
2013-01-31 09:38:00,15.4,10.4,29.92,NW,319,11.0,21.0,80,0.00,,---,0.00,VWS V14.00,2013-01-31 15:38:00,
2013-01-31 09:43:00,15.2,10.1,29.93,NW,319,15.0,20.0,80,0.00,,---,0.00,VWS V14.00,2013-01-31 15:43:00,
2013-01-31 09:48:00,14.8,9.5,29.93,NW,319,14.0,22.0,79,0.00,,---,0.00,VWS V14.00,2013-01-31 15:48:00,
2013-01-31 09:53:00,14.8,9.8,29.93,NW,319,15.0,22.0,80,0.00,,---,0.00,VWS V14.00,2013-01-31 15:53:00,
2013-01-31 09:58:00,14.9,9.9,29.95,NW,319,18.0,22.0,80,0.00,,---,0.00,VWS V14.00,2013-01-31 15:58:00,
2013-01-31 10:00:00,14.8,10.3,29.91,NW,319,10.0,16.0,82,0.00,,---,0.00,VWS V14.00,2013-01-31 16:00:00,
2013-01-31 10:03:00,14.6,9.6,29.95,NW,319,14.0,22.0,80,0.00,,---,0.00,VWS V14.00,2013-01-31 16:03:00,
2013-01-31 10:08:00,14.7,9.7,29.95,NW,319,13.0,22.0,80,0.00,,---,0.00,VWS V14.00,2013-01-31 16:08:00,
2013-01-31 10:13:00,14.8,9.8,29.95,NW,319,15.0,15.0,80,0.00,,---,0.00,VWS V14.00,2013-01-31 16:13:00,
2013-01-31 10:18:00,14.7,9.9,29.95,NW,319,13.0,20.0,81,0.00,,---,0.00,VWS V14.00,2013-01-31 16:18:00,
2013-01-31 10:23:00,14.5,9.5,29.95,NW,319,12.0,20.0,80,0.00,,---,0.00,VWS V14.00,2013-01-31 16:23:00,
2013-01-31 10:28:00,14.7,9.9,29.97,NW,319,11.0,20.0,81,0.00,,---,0.00,VWS V14.00,2013-01-31 16:28:00,
2013-01-31 10:30:00,15.2,10.1,29.93,NW,319,12.0,21.0,80,0.00,,---,0.00,VWS V14.00,2013-01-31 16:30:00,
2013-01-31 10:33:00,14.6,9.8,29.97,NW,319,11.0,20.0,81,0.00,,---,0.00,VWS V14.00,2013-01-31 16:33:00,
2013-01-31 10:38:00,14.4,9.4,29.97,NW,319,11.0,20.0,80,0.00,,---,0.00,VWS V14.00,2013-01-31 16:38:00,
2013-01-31 10:43:00,14.2,8.9,29.97,NW,319,9.0,9.0,79,0.00,,---,0.00,VWS V14.00,2013-01-31 16:43:00,
2013-01-31 10:48:00,14.1,8.8,29.97,NW,319,14.0,25.0,79,0.00,,---,0.00,VWS V14.00,2013-01-31 16:48:00,
2013-01-31 10:53:00,14.5,9.2,29.97,NW,319,13.0,25.0,79,0.00,,---,0.00,VWS V14.00,2013-01-31 16:53:00,
2013-01-31 10:58:00,14.4,8.8,29.97,NW,319,14.0,25.0,78,0.00,,---,0.00,VWS V14.00,2013-01-31 16:58:00,
2013-01-31 11:00:00,14.8,9.8,29.95,NW,319,13.0,22.0,80,0.00,,---,0.00,VWS V14.00,2013-01-31 17:00:00,
2013-01-31 11:03:00,14.3,8.7,29.97,NW,319,18.0,25.0,78,0.00,,---,0.00,VWS V14.00,2013-01-31 17:03:00,
2013-01-31 11:08:00,14.1,8.5,29.97,NW,319,12.0,25.0,78,0.00,,---,0.00,VWS V14.00,2013-01-31 17:08:00,
2013-01-31 11:13:00,14.2,8.9,29.98,NW,319,12.0,13.0,79,0.00,,---,0.00,VWS V14.00,2013-01-31 17:13:00,
2013-01-31 11:18:00,14.2,8.9,29.98,NW,319,10.0,19.0,79,0.00,,---,0.00,VWS V14.00,2013-01-31 17:18:00,
2013-01-31 11:23:00,14.3,9.0,29.98,NW,319,19.0,20.0,79,0.00,,---,0.00,VWS V14.00,2013-01-31 17:23:00,
2013-01-31 11:28:00,14.0,9.0,29.98,NW,319,12.0,23.0,80,0.00,,---,0.00,VWS V14.00,2013-01-31 17:28:00,
2013-01-31 11:30:00,14.2,8.9,29.97,NW,319,9.0,21.0,79,0.00,,---,0.00,VWS V14.00,2013-01-31 17:30:00,
2013-01-31 11:33:00,13.7,8.1,29.98,NW,319,13.0,23.0,78,0.00,,---,0.00,VWS V14.00,2013-01-31 17:33:00,
2013-01-31 11:38:00,13.8,8.2,29.98,NW,319,13.0,23.0,78,0.00,,---,0.00,VWS V14.00,2013-01-31 17:38:00,
2013-01-31 11:43:00,13.8,7.9,29.98,NW,319,9.0,12.0,77,0.00,,---,0.00,VWS V14.00,2013-01-31 17:43:00,
2013-01-31 11:47:00,14.2,8.0,29.98,NW,319,16.0,22.0,76,0.00,,---,0.00,VWS V14.00,2013-01-31 17:47:00,
2013-01-31 11:52:00,13.9,7.8,29.98,NW,319,16.0,22.0,76,0.00,,---,0.00,VWS V14.00,2013-01-31 17:52:00,
2013-01-31 11:57:00,14.0,7.6,29.99,NW,319,18.0,22.0,75,0.00,,---,0.00,VWS V14.00,2013-01-31 17:57:00,
2013-01-31 12:00:00,14.1,8.8,29.98,NW,319,14.0,25.0,79,0.00,,---,0.00,VWS V14.00,2013-01-31 18:00:00,
2013-01-31 12:02:00,14.3,7.6,29.99,NW,319,21.0,22.0,74,0.00,,---,0.00,VWS V14.00,2013-01-31 18:02:00,
2013-01-31 12:07:00,14.4,7.6,29.99,NW,319,18.0,23.0,74,0.00,,---,0.00,VWS V14.00,2013-01-31 18:07:00,
2013-01-31 12:12:00,14.3,7.6,29.98,NW,319,21.0,21.0,74,0.00,,---,0.00,VWS V14.00,2013-01-31 18:12:00,
2013-01-31 12:17:00,14.3,7.6,29.98,NW,319,15.0,23.0,74,0.00,,---,0.00,VWS V14.00,2013-01-31 18:17:00,
2013-01-31 12:22:00,14.3,7.6,29.98,NW,319,14.0,24.0,74,0.00,,---,0.00,VWS V14.00,2013-01-31 18:22:00,
2013-01-31 12:27:00,14.3,7.6,29.98,NW,319,13.0,24.0,74,0.00,,---,0.00,VWS V14.00,2013-01-31 18:27:00,
2013-01-31 12:30:00,13.7,7.8,29.98,NW,319,12.0,23.0,77,0.00,,---,0.00,VWS V14.00,2013-01-31 18:30:00,
2013-01-31 12:32:00,14.4,7.9,29.98,NW,319,15.0,24.0,75,0.00,,---,0.00,VWS V14.00,2013-01-31 18:32:00,
2013-01-31 12:37:00,14.5,7.7,29.98,NW,319,12.0,24.0,74,0.00,,---,0.00,VWS V14.00,2013-01-31 18:37:00,
2013-01-31 12:42:00,14.5,8.0,29.98,NW,319,19.0,24.0,75,0.00,,---,0.00,VWS V14.00,2013-01-31 18:42:00,
2013-01-31 12:47:00,14.3,7.8,29.98,NW,319,11.0,21.0,75,0.00,,---,0.00,VWS V14.00,2013-01-31 18:47:00,
2013-01-31 12:52:00,14.1,7.9,29.98,NW,319,19.0,22.0,76,0.00,,---,0.00,VWS V14.00,2013-01-31 18:52:00,
2013-01-31 12:57:00,14.2,7.7,29.98,NW,319,15.0,24.0,75,0.00,,---,0.00,VWS V14.00,2013-01-31 18:57:00,
2013-01-31 13:00:00,14.3,7.6,29.98,NW,319,19.0,25.0,74,0.00,,---,0.00,VWS V14.00,2013-01-31 19:00:00,
2013-01-31 13:02:00,14.3,7.8,29.98,NW,319,16.0,24.0,75,0.00,,---,0.00,VWS V14.00,2013-01-31 19:02:00,
2013-01-31 13:07:00,13.8,7.1,29.98,NW,319,11.0,24.0,74,0.00,,---,0.00,VWS V14.00,2013-01-31 19:07:00,
2013-01-31 13:12:00,13.7,6.7,29.98,NW,319,16.0,24.0,73,0.00,,---,0.00,VWS V14.00,2013-01-31 19:12:00,
2013-01-31 13:17:00,13.3,6.3,29.98,NW,319,11.0,21.0,73,0.00,,---,0.00,VWS V14.00,2013-01-31 19:17:00,
2013-01-31 13:22:00,13.4,6.7,29.98,NW,319,18.0,21.0,74,0.00,,---,0.00,VWS V14.00,2013-01-31 19:22:00,
2013-01-31 13:27:00,13.5,7.1,29.98,NW,319,16.0,21.0,75,0.00,,---,0.00,VWS V14.00,2013-01-31 19:27:00,
2013-01-31 13:30:00,14.5,8.0,29.98,NW,319,19.0,24.0,75,0.00,,---,0.00,VWS V14.00,2013-01-31 19:30:00,
2013-01-31 13:32:00,13.4,6.7,29.98,NW,319,14.0,23.0,74,0.00,,---,0.00,VWS V14.00,2013-01-31 19:32:00,
2013-01-31 13:37:00,13.4,7.0,29.98,NW,319,10.0,23.0,75,0.00,,---,0.00,VWS V14.00,2013-01-31 19:37:00,
2013-01-31 13:42:00,13.2,6.8,29.99,NW,319,15.0,24.0,75,0.00,,---,0.00,VWS V14.00,2013-01-31 19:42:00,
2013-01-31 13:47:00,12.9,6.8,29.99,NW,319,14.0,21.0,76,0.00,,---,0.00,VWS V14.00,2013-01-31 19:47:00,
2013-01-31 13:52:00,12.7,7.4,29.99,NW,319,13.0,24.0,79,0.00,,---,0.00,VWS V14.00,2013-01-31 19:52:00,
2013-01-31 13:57:00,12.4,7.7,30.00,NW,319,14.0,24.0,81,0.00,,---,0.00,VWS V14.00,2013-01-31 19:57:00,
2013-01-31 14:00:00,13.7,6.7,29.98,NW,319,16.0,24.0,73,0.00,,---,0.00,VWS V14.00,2013-01-31 20:00:00,
2013-01-31 14:02:00,12.3,7.0,30.00,NW,319,18.0,24.0,79,0.00,,---,0.00,VWS V14.00,2013-01-31 20:02:00,
2013-01-31 14:07:00,12.6,6.8,30.00,NW,319,13.0,24.0,77,0.00,,---,0.00,VWS V14.00,2013-01-31 20:07:00,
2013-01-31 14:12:00,12.8,6.7,30.00,NW,319,13.0,24.0,76,0.00,,---,0.00,VWS V14.00,2013-01-31 20:12:00,
2013-01-31 14:17:00,12.7,6.0,30.00,NW,319,20.0,24.0,74,0.00,,---,0.00,VWS V14.00,2013-01-31 20:17:00,
2013-01-31 14:22:00,12.8,6.1,30.00,NW,319,14.0,26.0,74,0.00,,---,0.00,VWS V14.00,2013-01-31 20:22:00,
2013-01-31 14:27:00,13.0,6.3,30.00,NW,319,18.0,26.0,74,0.00,,---,0.00,VWS V14.00,2013-01-31 20:27:00,
2013-01-31 14:30:00,13.2,6.8,29.99,NW,319,16.0,24.0,75,0.00,,---,0.00,VWS V14.00,2013-01-31 20:30:00,
2013-01-31 14:32:00,13.1,6.4,30.00,NW,319,14.0,26.0,74,0.00,,---,0.00,VWS V14.00,2013-01-31 20:32:00,
2013-01-31 14:37:00,12.8,6.4,30.00,NW,319,21.0,26.0,75,0.00,,---,0.00,VWS V14.00,2013-01-31 20:37:00,
2013-01-31 14:42:00,12.6,5.9,30.01,NW,319,20.0,26.0,74,0.00,,---,0.00,VWS V14.00,2013-01-31 20:42:00,
2013-01-31 14:47:00,12.7,6.3,30.01,NW,319,22.0,22.0,75,0.00,,---,0.00,VWS V14.00,2013-01-31 20:47:00,
2013-01-31 14:52:00,12.4,5.4,30.01,NW,319,19.0,29.0,73,0.00,,---,0.00,VWS V14.00,2013-01-31 20:52:00,
2013-01-31 14:57:00,12.3,5.3,30.02,NW,319,11.0,29.0,73,0.00,,---,0.00,VWS V14.00,2013-01-31 20:57:00,
2013-01-31 15:00:00,12.8,6.7,30.00,NW,319,10.0,24.0,76,0.00,,---,0.00,VWS V14.00,2013-01-31 21:00:00,
2013-01-31 15:02:00,12.4,5.4,30.02,NW,319,20.0,30.0,73,0.00,,---,0.00,VWS V14.00,2013-01-31 21:02:00,
2013-01-31 15:07:00,12.4,5.1,30.02,NW,319,19.0,30.0,72,0.00,,---,0.00,VWS V14.00,2013-01-31 21:07:00,
2013-01-31 15:12:00,12.1,4.8,30.03,NW,319,16.0,30.0,72,0.00,,---,0.00,VWS V14.00,2013-01-31 21:12:00,
2013-01-31 15:17:00,12.0,4.7,30.03,NW,319,16.0,24.0,72,0.00,,---,0.00,VWS V14.00,2013-01-31 21:17:00,
2013-01-31 15:22:00,12.2,5.2,30.03,NW,319,13.0,24.0,73,0.00,,---,0.00,VWS V14.00,2013-01-31 21:22:00,
2013-01-31 15:27:00,11.9,4.6,30.03,NW,319,20.0,25.0,72,0.00,,---,0.00,VWS V14.00,2013-01-31 21:27:00,
2013-01-31 15:30:00,12.6,5.9,30.01,NW,319,16.0,26.0,74,0.00,,---,0.00,VWS V14.00,2013-01-31 21:30:00,
2013-01-31 15:32:00,11.7,4.7,30.03,NW,319,19.0,25.0,73,0.00,,---,0.00,VWS V14.00,2013-01-31 21:32:00,
2013-01-31 15:37:00,11.9,5.2,30.03,NW,319,20.0,25.0,74,0.00,,---,0.00,VWS V14.00,2013-01-31 21:37:00,
2013-01-31 15:42:00,11.7,5.0,30.04,NW,319,18.0,25.0,74,0.00,,---,0.00,VWS V14.00,2013-01-31 21:42:00,
2013-01-31 15:47:00,11.7,5.0,30.04,NW,319,21.0,24.0,74,0.00,,---,0.00,VWS V14.00,2013-01-31 21:47:00,
2013-01-31 15:52:00,11.5,5.4,30.04,NW,319,10.0,26.0,76,0.00,,---,0.00,VWS V14.00,2013-01-31 21:52:00,
2013-01-31 15:57:00,11.4,5.3,30.05,NW,319,13.0,27.0,76,0.00,,---,0.00,VWS V14.00,2013-01-31 21:57:00,
2013-01-31 16:00:00,12.1,4.8,30.03,NW,319,15.0,30.0,72,0.00,,---,0.00,VWS V14.00,2013-01-31 22:00:00,
2013-01-31 16:02:00,11.5,5.1,30.05,NW,319,16.0,27.0,75,0.00,,---,0.00,VWS V14.00,2013-01-31 22:02:00,
2013-01-31 16:07:00,11.2,4.2,30.05,NW,319,14.0,27.0,73,0.00,,---,0.00,VWS V14.00,2013-01-31 22:07:00,
2013-01-31 16:12:00,11.0,3.8,30.06,NW,319,20.0,27.0,72,0.00,,---,0.00,VWS V14.00,2013-01-31 22:12:00,
2013-01-31 16:17:00,10.8,3.6,30.06,NW,319,12.0,25.0,72,0.00,,---,0.00,VWS V14.00,2013-01-31 22:17:00,
2013-01-31 16:22:00,10.7,3.8,30.06,NW,319,9.0,26.0,73,0.00,,---,0.00,VWS V14.00,2013-01-31 22:22:00,
2013-01-31 16:27:00,10.8,4.2,30.06,NW,319,15.0,26.0,74,0.00,,---,0.00,VWS V14.00,2013-01-31 22:27:00,
2013-01-31 16:30:00,11.7,5.0,30.04,NW,319,15.0,25.0,74,0.00,,---,0.00,VWS V14.00,2013-01-31 22:30:00,
2013-01-31 16:32:00,10.6,4.0,30.06,NW,319,22.0,26.0,74,0.00,,---,0.00,VWS V14.00,2013-01-31 22:32:00,
2013-01-31 16:37:00,10.4,3.5,30.06,NW,319,13.0,26.0,73,0.00,,---,0.00,VWS V14.00,2013-01-31 22:37:00,
2013-01-31 16:42:00,10.2,3.3,30.08,NW,319,14.0,26.0,73,0.00,,---,0.00,VWS V14.00,2013-01-31 22:42:00,
2013-01-31 16:47:00,10.0,2.8,30.08,NW,319,13.0,25.0,72,0.00,,---,0.00,VWS V14.00,2013-01-31 22:47:00,
2013-01-31 16:52:00,10.0,3.1,30.08,NW,319,16.0,28.0,73,0.00,,---,0.00,VWS V14.00,2013-01-31 22:52:00,
2013-01-31 16:57:00,10.0,3.4,30.08,NW,319,19.0,28.0,74,0.00,,---,0.00,VWS V14.00,2013-01-31 22:57:00,
2013-01-31 17:00:00,11.0,3.8,30.06,NW,319,26.0,27.0,72,0.00,,---,0.00,VWS V14.00,2013-01-31 23:00:00,
2013-01-31 17:02:00,9.9,3.9,30.08,NW,319,18.0,28.0,76,0.00,,---,0.00,VWS V14.00,2013-01-31 23:02:00,
2013-01-31 17:07:00,9.7,3.7,30.08,NW,319,18.0,28.0,76,0.00,,---,0.00,VWS V14.00,2013-01-31 23:07:00,
2013-01-31 17:12:00,9.4,3.7,30.09,NW,319,25.0,28.0,77,0.00,,---,0.00,VWS V14.00,2013-01-31 23:12:00,
2013-01-31 17:17:00,9.2,3.5,30.09,NW,319,19.0,26.0,77,0.00,,---,0.00,VWS V14.00,2013-01-31 23:17:00,
2013-01-31 17:22:00,9.1,2.8,30.09,NW,319,14.0,26.0,75,0.00,,---,0.00,VWS V14.00,2013-01-31 23:22:00,
2013-01-31 17:27:00,9.0,2.4,30.10,NW,319,21.0,27.0,74,0.00,,---,0.00,VWS V14.00,2013-01-31 23:27:00,
2013-01-31 17:30:00,10.2,3.3,30.08,NW,319,13.0,26.0,73,0.00,,---,0.00,VWS V14.00,2013-01-31 23:30:00,
2013-01-31 17:32:00,9.0,2.4,30.10,NW,319,15.0,27.0,74,0.00,,---,0.00,VWS V14.00,2013-01-31 23:32:00,
2013-01-31 17:37:00,8.9,2.6,30.10,NW,319,16.0,27.0,75,0.00,,---,0.00,VWS V14.00,2013-01-31 23:37:00,
2013-01-31 17:42:00,8.7,3.3,30.11,NW,319,21.0,27.0,78,0.00,,---,0.00,VWS V14.00,2013-01-31 23:42:00,
2013-01-31 17:47:00,8.5,3.6,30.11,NW,319,15.0,24.0,80,0.00,,---,0.00,VWS V14.00,2013-01-31 23:47:00,
2013-01-31 17:52:00,8.3,3.1,30.11,NW,319,18.0,27.0,79,0.00,,---,0.00,VWS V14.00,2013-01-31 23:52:00,
2013-01-31 17:57:00,8.3,2.6,30.12,NW,319,14.0,27.0,77,0.00,,---,0.00,VWS V14.00,2013-01-31 23:57:00,
2013-01-31 18:00:00,9.4,3.7,30.09,NW,319,15.0,28.0,77,0.00,,---,0.00,VWS V14.00,2013-02-01 00:00:00,
2013-01-31 18:02:00,8.1,1.8,30.12,NW,319,30.0,30.0,75,0.00,,---,0.00,VWS V14.00,2013-02-01 00:02:00,
2013-01-31 18:07:00,8.0,1.2,30.12,NW,319,18.0,30.0,73,0.00,,---,0.00,VWS V14.00,2013-02-01 00:07:00,
2013-01-31 18:12:00,8.0,0.9,30.12,NW,319,21.0,30.0,72,0.00,,---,0.00,VWS V14.00,2013-02-01 00:12:00,
2013-01-31 18:17:00,7.9,0.5,30.12,NW,319,16.0,25.0,71,0.00,,---,0.00,VWS V14.00,2013-02-01 00:17:00,
2013-01-31 18:22:00,7.8,0.4,30.12,NW,319,19.0,26.0,71,0.00,,---,0.00,VWS V14.00,2013-02-01 00:22:00,
2013-01-31 18:27:00,7.8,0.4,30.13,NW,319,19.0,29.0,71,0.00,,---,0.00,VWS V14.00,2013-02-01 00:27:00,
2013-01-31 18:30:00,8.6,3.2,30.11,NW,319,19.0,27.0,78,0.00,,---,0.00,VWS V14.00,2013-02-01 00:30:00,
2013-01-31 18:32:00,7.8,0.1,30.13,NW,319,14.0,29.0,70,0.00,,---,0.00,VWS V14.00,2013-02-01 00:32:00,
2013-01-31 18:37:00,7.7,0.9,30.13,NW,319,13.0,29.0,73,0.00,,---,0.00,VWS V14.00,2013-02-01 00:37:00,
2013-01-31 18:42:00,7.6,1.4,30.14,NW,319,22.0,29.0,75,0.00,,---,0.00,VWS V14.00,2013-02-01 00:42:00,
2013-01-31 18:47:00,7.5,1.5,30.14,NW,319,21.0,31.0,76,0.00,,---,0.00,VWS V14.00,2013-02-01 00:47:00,
2013-01-31 18:52:00,7.4,1.1,30.14,NW,319,18.0,31.0,75,0.00,,---,0.00,VWS V14.00,2013-02-01 00:52:00,
2013-01-31 18:57:00,7.4,1.1,30.15,NW,319,12.0,31.0,75,0.00,,---,0.00,VWS V14.00,2013-02-01 00:57:00,
2013-01-31 19:00:00,7.9,0.8,30.12,NW,319,18.0,30.0,72,0.00,,---,0.00,VWS V14.00,2013-02-01 01:00:00,
2013-01-31 19:02:00,7.3,1.6,30.15,NW,319,14.0,31.0,77,0.00,,---,0.00,VWS V14.00,2013-02-01 01:02:00,
2013-01-31 19:07:00,7.2,2.1,30.15,NW,319,14.0,31.0,79,0.00,,---,0.00,VWS V14.00,2013-02-01 01:07:00,
2013-01-31 19:12:00,7.1,2.0,30.16,NW,319,22.0,31.0,79,0.00,,---,0.00,VWS V14.00,2013-02-01 01:12:00,
2013-01-31 19:17:00,7.1,1.4,30.16,NW,319,22.0,34.0,77,0.00,,---,0.00,VWS V14.00,2013-02-01 01:17:00,
2013-01-31 19:22:00,7.1,0.3,30.16,NW,319,13.0,34.0,73,0.00,,---,0.00,VWS V14.00,2013-02-01 01:22:00,
2013-01-31 19:27:00,7.1,0.0,30.17,NW,319,15.0,34.0,72,0.00,,---,0.00,VWS V14.00,2013-02-01 01:27:00,
2013-01-31 19:30:00,7.6,1.4,30.14,NW,319,16.0,29.0,75,0.00,,---,0.00,VWS V14.00,2013-02-01 01:30:00,
2013-01-31 19:32:00,6.9,-0.2,30.17,NW,319,20.0,34.0,72,0.00,,---,0.00,VWS V14.00,2013-02-01 01:32:00,
2013-01-31 19:37:00,6.8,0.0,30.17,NW,319,18.0,34.0,73,0.00,,---,0.00,VWS V14.00,2013-02-01 01:37:00,
2013-01-31 19:42:00,6.7,-0.1,30.17,NW,319,12.0,34.0,73,0.00,,---,0.00,VWS V14.00,2013-02-01 01:42:00,
2013-01-31 19:47:00,6.7,-0.1,30.17,NW,319,15.0,31.0,73,0.00,,---,0.00,VWS V14.00,2013-02-01 01:47:00,
2013-01-31 19:52:00,6.7,-0.1,30.17,NW,319,20.0,31.0,73,0.00,,---,0.00,VWS V14.00,2013-02-01 01:52:00,
2013-01-31 19:57:00,6.6,-0.2,30.18,NW,319,19.0,31.0,73,0.00,,---,0.00,VWS V14.00,2013-02-01 01:57:00,
2013-01-31 20:00:00,7.1,2.0,30.16,NW,319,13.0,31.0,79,0.00,,---,0.00,VWS V14.00,2013-02-01 02:00:00,
2013-01-31 20:02:00,6.6,-0.2,30.18,NW,319,11.0,31.0,73,0.00,,---,0.00,VWS V14.00,2013-02-01 02:02:00,
2013-01-31 20:07:00,6.6,0.4,30.18,NW,319,21.0,31.0,75,0.00,,---,0.00,VWS V14.00,2013-02-01 02:07:00,
2013-01-31 20:12:00,6.5,0.3,30.18,NW,319,11.0,31.0,75,0.00,,---,0.00,VWS V14.00,2013-02-01 02:12:00,
2013-01-31 20:17:00,6.4,0.5,30.18,NW,319,11.0,26.0,76,0.00,,---,0.00,VWS V14.00,2013-02-01 02:17:00,
2013-01-31 20:22:00,6.2,1.1,30.18,NW,319,21.0,26.0,79,0.00,,---,0.00,VWS V14.00,2013-02-01 02:22:00,
2013-01-31 20:27:00,6.2,1.1,30.19,NW,319,22.0,26.0,79,0.00,,---,0.00,VWS V14.00,2013-02-01 02:27:00,
2013-01-31 20:30:00,6.7,-0.1,30.17,NW,319,11.0,34.0,73,0.00,,---,0.00,VWS V14.00,2013-02-01 02:30:00,
2013-01-31 20:32:00,6.2,0.8,30.19,NW,319,13.0,26.0,78,0.00,,---,0.00,VWS V14.00,2013-02-01 02:32:00,
2013-01-31 20:37:00,6.2,0.6,30.19,NW,319,13.0,26.0,77,0.00,,---,0.00,VWS V14.00,2013-02-01 02:37:00,
2013-01-31 20:42:00,6.1,0.7,30.19,NW,319,13.0,26.0,78,0.00,,---,0.00,VWS V14.00,2013-02-01 02:42:00,
2013-01-31 20:47:00,6.0,0.6,30.19,NW,319,15.0,21.0,78,0.00,,---,0.00,VWS V14.00,2013-02-01 02:47:00,
2013-01-31 20:52:00,6.0,0.3,30.19,NW,319,15.0,24.0,77,0.00,,---,0.00,VWS V14.00,2013-02-01 02:52:00,
2013-01-31 20:57:00,6.0,0.1,30.20,NW,319,10.0,24.0,76,0.00,,---,0.00,VWS V14.00,2013-02-01 02:57:00,
2013-01-31 21:00:00,6.4,0.2,30.18,NW,319,15.0,31.0,75,0.00,,---,0.00,VWS V14.00,2013-02-01 03:00:00,
2013-01-31 21:02:00,5.9,0.3,30.20,NW,319,12.0,26.0,77,0.00,,---,0.00,VWS V14.00,2013-02-01 03:02:00,
2013-01-31 21:07:00,5.8,0.7,30.20,NW,319,15.0,26.0,79,0.00,,---,0.00,VWS V14.00,2013-02-01 03:07:00,
2013-01-31 21:12:00,5.7,1.4,30.21,NW,319,19.0,26.0,82,0.00,,---,0.00,VWS V14.00,2013-02-01 03:12:00,
2013-01-31 21:17:00,5.7,1.4,30.21,NW,319,20.0,23.0,82,0.00,,---,0.00,VWS V14.00,2013-02-01 03:17:00,
2013-01-31 21:22:00,5.8,1.5,30.21,NW,319,15.0,23.0,82,0.00,,---,0.00,VWS V14.00,2013-02-01 03:22:00,
2013-01-31 21:27:00,5.6,1.3,30.22,NW,319,15.0,25.0,82,0.00,,---,0.00,VWS V14.00,2013-02-01 03:27:00,
2013-01-31 21:30:00,6.1,0.7,30.19,NW,319,18.0,26.0,78,0.00,,---,0.00,VWS V14.00,2013-02-01 03:30:00,
2013-01-31 21:32:00,5.5,1.2,30.22,NW,319,11.0,25.0,82,0.00,,---,0.00,VWS V14.00,2013-02-01 03:32:00,
2013-01-31 21:37:00,5.4,1.1,30.22,NW,319,15.0,25.0,82,0.00,,---,0.00,VWS V14.00,2013-02-01 03:37:00,
2013-01-31 21:42:00,5.5,1.2,30.23,NW,319,21.0,25.0,82,0.00,,---,0.00,VWS V14.00,2013-02-01 03:42:00,
2013-01-31 21:47:00,5.5,0.9,30.23,NW,319,18.0,22.0,81,0.00,,---,0.00,VWS V14.00,2013-02-01 03:47:00,
2013-01-31 21:52:00,5.3,1.0,30.23,NW,319,15.0,23.0,82,0.00,,---,0.00,VWS V14.00,2013-02-01 03:52:00,
2013-01-31 21:57:00,5.3,1.3,30.23,NW,319,11.0,27.0,83,0.00,,---,0.00,VWS V14.00,2013-02-01 03:57:00,
2013-01-31 22:00:00,5.8,1.5,30.21,NW,319,11.0,26.0,82,0.00,,---,0.00,VWS V14.00,2013-02-01 04:00:00,
2013-01-31 22:02:00,5.3,1.3,30.23,NW,319,14.0,27.0,83,0.00,,---,0.00,VWS V14.00,2013-02-01 04:02:00,
2013-01-31 22:07:00,5.2,0.6,30.23,NW,319,16.0,27.0,81,0.00,,---,0.00,VWS V14.00,2013-02-01 04:07:00,
2013-01-31 22:12:00,5.1,0.6,30.25,NW,319,14.0,27.0,81,0.00,,---,0.00,VWS V14.00,2013-02-01 04:12:00,
2013-01-31 22:17:00,4.9,-0.2,30.25,NW,319,14.0,23.0,79,0.00,,---,0.00,VWS V14.00,2013-02-01 04:17:00,
2013-01-31 22:22:00,4.7,-0.6,30.25,NW,319,14.0,26.0,78,0.00,,---,0.00,VWS V14.00,2013-02-01 04:22:00,
2013-01-31 22:27:00,4.6,-1.3,30.25,NW,319,21.0,26.0,76,0.00,,---,0.00,VWS V14.00,2013-02-01 04:27:00,
2013-01-31 22:30:00,5.5,1.2,30.23,NW,319,21.0,25.0,82,0.00,,---,0.00,VWS V14.00,2013-02-01 04:30:00,
2013-01-31 22:32:00,4.5,-1.4,30.25,NW,319,9.0,26.0,76,0.00,,---,0.00,VWS V14.00,2013-02-01 04:32:00,
2013-01-31 22:37:00,4.3,-1.9,30.25,NW,319,18.0,26.0,75,0.00,,---,0.00,VWS V14.00,2013-02-01 04:37:00,
2013-01-31 22:42:00,4.2,-2.0,30.26,NW,319,15.0,28.0,75,0.00,,---,0.00,VWS V14.00,2013-02-01 04:42:00,
2013-01-31 22:47:00,4.1,-2.0,30.26,NW,319,12.0,24.0,75,0.00,,---,0.00,VWS V14.00,2013-02-01 04:47:00,
2013-01-31 22:52:00,4.0,-2.2,30.26,NW,319,24.0,26.0,75,0.00,,---,0.00,VWS V14.00,2013-02-01 04:52:00,
2013-01-31 22:57:00,4.0,-2.2,30.26,NW,319,18.0,26.0,75,0.00,,---,0.00,VWS V14.00,2013-02-01 04:57:00,
2013-01-31 23:00:00,4.0,-2.2,30.26,NW,319,11.0,26.0,75,0.00,,---,0.00,VWS V14.00,2013-02-01 05:00:00,
2013-01-31 23:01:00,4.0,-2.2,30.26,NW,319,11.0,26.0,75,0.00,,---,0.00,VWS V14.00,2013-02-01 05:01:00,
2013-01-31 23:02:00,4.0,-2.2,30.26,NW,319,14.0,26.0,75,0.00,,---,0.00,VWS V14.00,2013-02-01 05:02:00,
2013-01-31 23:07:00,4.0,-1.9,30.26,NW,319,18.0,26.0,76,0.00,,---,0.00,VWS V14.00,2013-02-01 05:07:00,
2013-01-31 23:12:00,3.8,-1.8,30.27,NW,319,15.0,27.0,77,0.00,,---,0.00,VWS V14.00,2013-02-01 05:12:00,
2013-01-31 23:17:00,3.8,-2.1,30.27,NW,319,15.0,20.0,76,0.00,,---,0.00,VWS V14.00,2013-02-01 05:17:00,
2013-01-31 23:22:00,3.8,-2.1,30.27,NW,319,12.0,20.0,76,0.00,,---,0.00,VWS V14.00,2013-02-01 05:22:00,
2013-01-31 23:27:00,3.7,-2.2,30.28,NW,319,23.0,23.0,76,0.00,,---,0.00,VWS V14.00,2013-02-01 05:27:00,
2013-01-31 23:30:00,4.2,-2.0,30.26,NW,319,14.0,28.0,75,0.00,,---,0.00,VWS V14.00,2013-02-01 05:30:00,
2013-01-31 23:32:00,3.7,-2.4,30.28,NW,319,21.0,25.0,75,0.00,,---,0.00,VWS V14.00,2013-02-01 05:32:00,
2013-01-31 23:42:00,3.6,-2.8,30.28,NW,319,16.0,25.0,74,0.00,,---,0.00,VWS V14.00,2013-02-01 05:42:00,
2013-01-31 23:47:00,3.6,-2.5,30.28,NW,319,13.0,23.0,75,0.00,,---,0.00,VWS V14.00,2013-02-01 05:47:00,
2013-01-31 23:52:00,3.5,-2.6,30.28,NW,319,15.0,23.0,75,0.00,,---,0.00,VWS V14.00,2013-02-01 05:52:00,
2013-01-31 23:57:00,3.5,-2.6,30.28,NW,319,14.0,23.0,75,0.00,,---,0.00,VWS V14.00,2013-02-01 05:57:00,